User: anonymous   Login
Location: Unspecified
(0.0000°N, 0.0000°E)
Time: 14:22:05
(UTC+00:00)
Language:

LES 5 - Orbit

View from above orbital plane
View from above orbital plane
View from above satellite
View from above satellite

Ground track
Ground track

The orbit data is extracted from the following two-line orbital elements,

1  2866U 67066E   18020.09538031 -.00000049 +00000-0 +00000-0 0  9991
2  2866 004.6652 290.8068 0058290 324.1497 243.4635 01.09424696097435
Epoch (UTC): 20 January 2018 02:17:20
Eccentricity: 0.0058290
inclination: 4.6652°
perigee height: 33169 km
apogee height: 33633 km
right ascension of ascending node: 290.8068°
argument of perigee: 324.1497°
revolutions per day: 1.09424696
mean anomaly at epoch: 243.4635°
orbit number at epoch: 9743

The dashed part of the orbit path shows where the satellite is in the earth's shadow,  

DLR